Hauptseite
METAR-TAF:

METAR-TAF

Flughäfen :

Troyes, Frankreich

Breite: 48-20N, Länge: 004-01E, Höhe: 118 m

Beobachtung

Neuester Wetterbericht von vor 38 Minuten, um 20:30 UTC
Wind 9 kt aus Süd/Südwest
Temperatur 6°C
Luftfeuchtigkeit 75%
Luftdruck 1010 hPa
Sichtweite 10 km oder mehr
Geschlossene Wolkendecke in der Höhe von 3500 ft

METAR: LFQB 162030Z AUTO 20009KT 9999 OVC035 06/02 Q1010

Zeit: 22:08 (21:08 UTC)


TAF: fehlend

Wetterbeobachtungen und Prognosen von mehr als 4000 Flughäfen (METAR und TAF Bericht).

Die verfügbaren Stationen werden durch gelbe und rote Markierungen auf der Karte dargestellt.

Führen Sie die Maus auf sie, um den Namen der Station zu sehen.

Darauf klicken, um die Beobachtung von Wetterbeobachtungen und Prognosen zu sehen.

Um die Karte zu ändern : klicken Sie auf den grünen Tasten mit einem schwarzen Kreuz Zum Vergrößern, auf den grünen Button mit einem Gedankenstrich zu verkleinern, oder auf die grünen Pfeile für benachbarte Karten.


METAR-TAF: